sat.trackr.live / text

‹ back to catalog

STARLINK-3291

NORAD 50175 · 2021-125V

PAYLOAD ACTIVE UNKNOWN

§ Identity

Operator
Country
US
Launch date
2021-12-18
Launch site
AFWTR
Launch vehicle
Mass (kg)
RCS (m²)

Purposes: comms

External: N2YO · Heavens-Above · Gunter

§ Orbital elements

Epoch: 2026-05-25T03:32:25.692576Z

Period
95.44 min
Inclination
53.2155°
Eccentricity
0.0000963
Mean motion
15.08763000 rev/d
Perigee alt
539.3 km
Apogee alt
540.6 km
Semi-major
6,918.1 km
B*
-8.7970e-4
RAAN
265.8882°
Arg perigee
51.4000°
Mean anomaly
308.7078°
Rev number
24,814

§ Raw data

STARLINK-32911 50175U 21125V   26145.14751959 -.00014231  00000+0 -87970-3 0  99942 50175  53.2155 265.8882 0000963  51.4000 308.7078 15.08763000248140

JSON: /api/v1/satellites/50175 · /tle

For live sub-satellite position, see the globe view (requires WebGL).

§ Visibility from observer

Set your observer location to see the next 7 days of passes ≥ 10°. The values pass through the URL so the page stays shareable.

No JS? Fill the form by hand. The geolocation button needs JavaScript.